カタログに戻る

STARLINK-30434

運用中通信VLEO
NORAD 57875·PAYLOAD·🇺🇸 United States

打ち上げ Sep 16, 2023 から Cape Canaveral Space Force Station

Loading…

次のパス (今後24時間)

TLE

最新Source: CelesTrak SupGP

元期: Sep 14, 2026, 21:33 UTC

1 57875C 23144M   26257.89840278 -.00007109  00000+0 -25749-3 0  2579
2 57875  43.0022 296.8939 0001695 267.4922  21.0116 15.27578490    14

AllMySatでSTARLINK-30434をリアルタイム追跡

Download on the App Store